Starlink 36262

operational
NORAD ID: 67201 Int'l Des: 2025-304 Owner: SPXS Country: US Constellation: starlink
LEOCIRCULAR

Über Starlink 36262

Beschreibung wird geladen...

Live-Position

3D-Globus wird geladen...

Nächste Überflüge

Höhenverlauf

Altitude vs Time

uPlot chart will show altitude changes over time

Zweizeiliger Elementsatz

1 67201C 25304K 25352.76437500 .00703130 00000+0 96852-3 0 3528
2 67201 69.9983 31.2813 0009129 254.9589 216.9134 16.05070349 15
Epoch: 18. Dez. 2025 • Age: 58 hours

Aktueller Status

Höhe 258.5 km
Geschwindigkeit 7.75 km/s
Subsatellitenpunkt -24.36°S, 17.3°W
Startdatum 17. Dez. 2025
Alter 2 days
Typ internet

Technische Details

Klassifizierung Payload
Masse 575.00 kg
Trockenmasse 530.00 kg
Gesamtmasse 575.00 kg
Länge 0.30 m
Durchmesser 4.10 m
Spannweite 29.00 m
Form Box + pan
Hersteller SPXS
Bus-Typ Starlink V2MO
Phasenstatus In Orbit
Besitzer/Staat SPXS/US

Große Konstellationen

Loading constellations...